Year,Month,Day,Hour,Minute,Value (Times are PST for temperature in C)
2018,02,08,00,00,8.00
2018,02,08,00,01,8.00
2018,02,08,00,02,8.00
2018,02,08,00,03,8.00
2018,02,08,00,04,8.00
2018,02,08,00,05,8.00
2018,02,08,00,06,8.00
2018,02,08,00,07,8.00
2018,02,08,00,08,7.90
2018,02,08,00,09,7.90
2018,02,08,00,10,7.90
2018,02,08,00,11,7.90
2018,02,08,00,12,7.90
2018,02,08,00,13,7.90
2018,02,08,00,14,7.90
2018,02,08,00,15,7.90
2018,02,08,00,16,7.90
2018,02,08,00,17,7.90
2018,02,08,00,18,7.90
2018,02,08,00,19,7.90
2018,02,08,00,20,7.90
2018,02,08,00,21,7.90
2018,02,08,00,22,7.90
2018,02,08,00,23,7.90
2018,02,08,00,24,7.90
2018,02,08,00,25,7.90
2018,02,08,00,26,7.90
2018,02,08,00,27,7.90
2018,02,08,00,28,7.90
2018,02,08,00,29,7.90
2018,02,08,00,30,7.90
2018,02,08,00,31,7.80
2018,02,08,00,32,7.80
2018,02,08,00,33,7.80
2018,02,08,00,34,7.80
2018,02,08,00,35,7.80
2018,02,08,00,36,7.80
2018,02,08,00,37,7.80
2018,02,08,00,38,7.80
2018,02,08,00,39,7.80
2018,02,08,00,40,7.80
2018,02,08,00,41,7.80
2018,02,08,00,42,7.80
2018,02,08,00,43,7.80
2018,02,08,00,44,7.80
2018,02,08,00,45,7.80
2018,02,08,00,46,7.70
2018,02,08,00,47,7.70
2018,02,08,00,48,7.70
2018,02,08,00,49,7.70
2018,02,08,00,50,7.70
2018,02,08,00,51,7.70
2018,02,08,00,52,7.60
2018,02,08,00,53,7.60
2018,02,08,00,54,7.50
2018,02,08,00,55,7.50
2018,02,08,00,56,7.40
2018,02,08,00,57,7.40
2018,02,08,00,58,7.30
2018,02,08,00,59,7.30
2018,02,08,01,00,7.30
2018,02,08,01,01,7.20
2018,02,08,01,02,7.20
2018,02,08,01,03,7.20
2018,02,08,01,04,7.20
2018,02,08,01,05,7.20
2018,02,08,01,06,7.30
2018,02,08,01,07,7.30
2018,02,08,01,08,7.30
2018,02,08,01,09,7.30
2018,02,08,01,10,7.40
2018,02,08,01,11,7.30
2018,02,08,01,12,7.30
2018,02,08,01,13,7.30
2018,02,08,01,14,7.30
2018,02,08,01,15,7.30
2018,02,08,01,16,7.30
2018,02,08,01,17,7.30
2018,02,08,01,18,7.30
2018,02,08,01,19,7.30
2018,02,08,01,20,7.30
2018,02,08,01,21,7.30
2018,02,08,01,22,7.30
2018,02,08,01,23,7.30
2018,02,08,01,24,7.20
2018,02,08,01,25,7.20
2018,02,08,01,26,7.10
2018,02,08,01,27,7.00
2018,02,08,01,28,6.90
2018,02,08,01,29,6.90
2018,02,08,01,30,6.80
2018,02,08,01,31,6.80
2018,02,08,01,32,6.80
2018,02,08,01,33,6.80
2018,02,08,01,34,6.80
2018,02,08,01,35,6.80
2018,02,08,01,36,6.80
2018,02,08,01,37,6.80
2018,02,08,01,38,6.80
2018,02,08,01,39,6.80
2018,02,08,01,40,6.80
2018,02,08,01,41,6.80
2018,02,08,01,42,6.80
2018,02,08,01,43,6.80
2018,02,08,01,44,6.80
2018,02,08,01,45,6.70
2018,02,08,01,46,6.70
2018,02,08,01,47,6.70
2018,02,08,01,48,6.60
2018,02,08,01,49,6.60
2018,02,08,01,50,6.60
2018,02,08,01,51,6.60
2018,02,08,01,52,6.50
2018,02,08,01,53,6.50
2018,02,08,01,54,6.50
2018,02,08,01,55,6.50
2018,02,08,01,56,6.50
2018,02,08,01,57,6.50
2018,02,08,01,58,6.50
2018,02,08,01,59,6.50
2018,02,08,02,00,6.50
2018,02,08,02,01,6.50
2018,02,08,02,02,6.50
2018,02,08,02,03,6.40
2018,02,08,02,04,6.40
2018,02,08,02,05,6.40
2018,02,08,02,06,6.40
2018,02,08,02,07,6.40
2018,02,08,02,08,6.40
2018,02,08,02,09,6.40
2018,02,08,02,10,6.40
2018,02,08,02,11,6.40
2018,02,08,02,12,6.40
2018,02,08,02,13,6.40
2018,02,08,02,14,6.40
2018,02,08,02,15,6.40
2018,02,08,02,16,6.30
2018,02,08,02,17,6.30
2018,02,08,02,18,6.30
2018,02,08,02,19,6.30
2018,02,08,02,20,6.30
2018,02,08,02,21,6.30
2018,02,08,02,22,6.30
2018,02,08,02,23,6.30
2018,02,08,02,24,6.20
2018,02,08,02,25,6.20
2018,02,08,02,26,6.10
2018,02,08,02,27,6.10
2018,02,08,02,28,6.10
2018,02,08,02,29,6.00
2018,02,08,02,30,6.00
2018,02,08,02,31,6.00
2018,02,08,02,32,5.90
2018,02,08,02,33,5.90
2018,02,08,02,34,5.90
2018,02,08,02,35,5.90
2018,02,08,02,36,5.90
2018,02,08,02,37,5.90
2018,02,08,02,38,5.90
2018,02,08,02,39,5.90
2018,02,08,02,40,5.90
2018,02,08,02,41,5.90
2018,02,08,02,42,5.80
2018,02,08,02,43,5.80
2018,02,08,02,44,5.80
2018,02,08,02,45,5.80
2018,02,08,02,46,5.80
2018,02,08,02,47,5.80
2018,02,08,02,48,5.80
2018,02,08,02,49,5.80
2018,02,08,02,50,5.80
2018,02,08,02,51,5.80
2018,02,08,02,52,5.80
2018,02,08,02,53,5.80
2018,02,08,02,54,5.90
2018,02,08,02,55,5.90
2018,02,08,02,56,6.00
2018,02,08,02,57,6.10
2018,02,08,02,58,6.10
2018,02,08,02,59,6.20
2018,02,08,03,00,6.20
2018,02,08,03,01,6.20
2018,02,08,03,02,6.20
2018,02,08,03,03,6.20
2018,02,08,03,04,6.30
2018,02,08,03,05,6.30
2018,02,08,03,06,6.30
2018,02,08,03,07,6.30
2018,02,08,03,08,6.30
2018,02,08,03,09,6.40
2018,02,08,03,10,6.40
2018,02,08,03,11,6.40
2018,02,08,03,12,6.40
2018,02,08,03,13,6.40
2018,02,08,03,14,6.40
2018,02,08,03,15,6.40
2018,02,08,03,16,6.40
2018,02,08,03,17,6.40
2018,02,08,03,18,6.40
2018,02,08,03,19,6.40
2018,02,08,03,20,6.40
2018,02,08,03,21,6.30
2018,02,08,03,22,6.30
2018,02,08,03,23,6.30
2018,02,08,03,24,6.30
2018,02,08,03,25,6.20
2018,02,08,03,26,6.20
2018,02,08,03,27,6.20
2018,02,08,03,28,6.20
2018,02,08,03,29,6.20
2018,02,08,03,30,6.20
2018,02,08,03,31,6.10
2018,02,08,03,32,6.10
2018,02,08,03,33,6.10
2018,02,08,03,34,6.10
2018,02,08,03,35,6.10
2018,02,08,03,36,6.10
2018,02,08,03,37,6.10
2018,02,08,03,38,6.20
2018,02,08,03,39,6.20
2018,02,08,03,40,6.20
2018,02,08,03,41,6.20
2018,02,08,03,42,6.20
2018,02,08,03,43,6.20
2018,02,08,03,44,6.20
2018,02,08,03,45,6.20
2018,02,08,03,46,6.20
2018,02,08,03,47,6.20
2018,02,08,03,48,6.20
2018,02,08,03,49,6.20
2018,02,08,03,50,6.20
2018,02,08,03,51,6.20
2018,02,08,03,52,6.20
2018,02,08,03,53,6.20
2018,02,08,03,54,6.20
2018,02,08,03,55,6.20
2018,02,08,03,56,6.30
2018,02,08,03,57,6.30
2018,02,08,03,58,6.30
2018,02,08,03,59,6.20
2018,02,08,04,00,6.20
2018,02,08,04,01,6.20
2018,02,08,04,02,6.20
2018,02,08,04,03,6.10
2018,02,08,04,04,6.10
2018,02,08,04,05,6.10
2018,02,08,04,06,6.10
2018,02,08,04,07,6.20
2018,02,08,04,08,6.10
2018,02,08,04,09,6.20
2018,02,08,04,10,6.10
2018,02,08,04,11,6.10
2018,02,08,04,12,6.10
2018,02,08,04,13,6.10
2018,02,08,04,14,6.10
2018,02,08,04,15,6.10
2018,02,08,04,16,6.10
2018,02,08,04,17,6.10
2018,02,08,04,18,6.10
2018,02,08,04,19,6.20
2018,02,08,04,20,6.20
2018,02,08,04,21,6.10
2018,02,08,04,22,6.10
2018,02,08,04,23,6.10
2018,02,08,04,24,6.10
2018,02,08,04,25,6.10
2018,02,08,04,26,6.10
2018,02,08,04,27,6.00
2018,02,08,04,28,6.00
2018,02,08,04,29,6.00
2018,02,08,04,30,6.00
2018,02,08,04,31,6.00
2018,02,08,04,32,6.00
2018,02,08,04,33,6.00
2018,02,08,04,34,6.10
2018,02,08,04,35,6.10
2018,02,08,04,36,6.00
2018,02,08,04,37,6.10
2018,02,08,04,38,6.10
2018,02,08,04,39,6.10
2018,02,08,04,40,6.10
2018,02,08,04,41,6.10
2018,02,08,04,42,6.10
2018,02,08,04,43,6.10
2018,02,08,04,44,6.10
2018,02,08,04,45,6.10
2018,02,08,04,46,6.10
2018,02,08,04,47,6.10
2018,02,08,04,48,6.10
2018,02,08,04,49,6.10
2018,02,08,04,50,6.10
2018,02,08,04,51,6.10
2018,02,08,04,52,6.10
2018,02,08,04,53,6.10
2018,02,08,04,54,6.10
2018,02,08,04,55,6.10
2018,02,08,04,56,6.10
2018,02,08,04,57,6.20
2018,02,08,04,58,6.20
2018,02,08,04,59,6.20
2018,02,08,05,00,6.20
2018,02,08,05,01,6.20
2018,02,08,05,02,6.20
2018,02,08,05,03,6.20
2018,02,08,05,04,6.20
2018,02,08,05,05,6.20
2018,02,08,05,06,6.20
2018,02,08,05,07,6.20
2018,02,08,05,08,6.20
2018,02,08,05,09,6.20
2018,02,08,05,10,6.20
2018,02,08,05,11,6.20
2018,02,08,05,12,6.20
2018,02,08,05,13,6.10
2018,02,08,05,14,6.10
2018,02,08,05,15,6.10
2018,02,08,05,16,6.10
2018,02,08,05,17,6.10
2018,02,08,05,18,6.10
2018,02,08,05,19,6.10
2018,02,08,05,20,6.10
2018,02,08,05,21,6.10
2018,02,08,05,22,6.10
2018,02,08,05,23,6.10
2018,02,08,05,24,6.10
2018,02,08,05,25,6.00
2018,02,08,05,26,6.00
2018,02,08,05,27,6.00
2018,02,08,05,28,6.00
2018,02,08,05,29,6.00
2018,02,08,05,30,6.00
2018,02,08,05,31,6.00
2018,02,08,05,32,6.00
2018,02,08,05,33,6.00
2018,02,08,05,34,5.90
2018,02,08,05,35,5.90
2018,02,08,05,36,5.90
2018,02,08,05,37,5.90
2018,02,08,05,38,6.00
2018,02,08,05,39,5.90
2018,02,08,05,40,6.00
2018,02,08,05,41,6.00
2018,02,08,05,42,6.00
2018,02,08,05,43,6.00
2018,02,08,05,44,6.00
2018,02,08,05,45,6.10
2018,02,08,05,46,6.10
2018,02,08,05,47,6.10
2018,02,08,05,48,6.10
2018,02,08,05,49,6.10
2018,02,08,05,50,6.10
2018,02,08,05,51,6.10
2018,02,08,05,52,6.20
2018,02,08,05,53,6.20
2018,02,08,05,54,6.20
2018,02,08,05,55,6.20
2018,02,08,05,56,6.20
2018,02,08,05,57,6.20
2018,02,08,05,58,6.20
2018,02,08,05,59,6.20
2018,02,08,06,00,6.20
2018,02,08,06,01,6.20
2018,02,08,06,02,6.20
2018,02,08,06,03,6.20
2018,02,08,06,04,6.20
2018,02,08,06,05,6.20
2018,02,08,06,06,6.20
2018,02,08,06,07,6.20
2018,02,08,06,08,6.10
2018,02,08,06,09,6.10
2018,02,08,06,10,6.10
2018,02,08,06,11,6.10
2018,02,08,06,12,6.10
2018,02,08,06,13,6.10
2018,02,08,06,14,6.10
2018,02,08,06,15,6.10
2018,02,08,06,16,6.00
2018,02,08,06,17,6.00
2018,02,08,06,18,6.00
2018,02,08,06,19,6.00
2018,02,08,06,20,6.00
2018,02,08,06,21,6.00
2018,02,08,06,22,5.90
2018,02,08,06,23,5.90
2018,02,08,06,24,5.90
2018,02,08,06,25,5.90
2018,02,08,06,26,5.90
2018,02,08,06,27,5.90
2018,02,08,06,28,5.90
2018,02,08,06,29,5.90
2018,02,08,06,30,5.90
2018,02,08,06,31,5.90
2018,02,08,06,32,5.90
2018,02,08,06,33,5.90
2018,02,08,06,34,5.90
2018,02,08,06,35,5.90
2018,02,08,06,36,5.90
2018,02,08,06,37,5.90
2018,02,08,06,38,5.90
2018,02,08,06,39,5.90
2018,02,08,06,40,5.90
2018,02,08,06,41,5.90
2018,02,08,06,42,5.90
2018,02,08,06,43,5.90
2018,02,08,06,44,5.90
2018,02,08,06,45,6.00
2018,02,08,06,46,6.00
2018,02,08,06,47,6.00
2018,02,08,06,48,6.10
2018,02,08,06,49,6.10
2018,02,08,06,50,6.10
2018,02,08,06,51,6.10
2018,02,08,06,52,6.10
2018,02,08,06,53,6.20
2018,02,08,06,54,6.20
2018,02,08,06,55,6.20
2018,02,08,06,56,6.20
2018,02,08,06,57,6.20
2018,02,08,06,58,6.20
2018,02,08,06,59,6.20
2018,02,08,07,00,6.20
2018,02,08,07,01,6.20
2018,02,08,07,02,6.20
2018,02,08,07,03,6.20
2018,02,08,07,04,6.10
2018,02,08,07,05,6.10
2018,02,08,07,06,6.20
2018,02,08,07,07,6.20
2018,02,08,07,08,6.20
2018,02,08,07,09,6.20
2018,02,08,07,10,6.30
2018,02,08,07,11,6.30
2018,02,08,07,12,6.30
2018,02,08,07,13,6.40
2018,02,08,07,14,6.40
2018,02,08,07,15,6.50
2018,02,08,07,16,6.50
2018,02,08,07,17,6.60
2018,02,08,07,18,6.60
2018,02,08,07,19,6.60
2018,02,08,07,20,6.60
2018,02,08,07,21,6.60
2018,02,08,07,22,6.60
2018,02,08,07,23,6.60
2018,02,08,07,24,6.60
2018,02,08,07,25,6.60
2018,02,08,07,26,6.60
2018,02,08,07,27,6.60
2018,02,08,07,28,6.60
2018,02,08,07,29,6.50
2018,02,08,07,30,6.50
2018,02,08,07,31,6.40
2018,02,08,07,32,6.40
2018,02,08,07,33,6.40
2018,02,08,07,34,6.30
2018,02,08,07,35,6.30
2018,02,08,07,36,6.30
2018,02,08,07,37,6.20
2018,02,08,07,38,6.20
2018,02,08,07,39,6.20
2018,02,08,07,40,6.20
2018,02,08,07,41,6.20
2018,02,08,07,42,6.20
2018,02,08,07,43,6.10
2018,02,08,07,44,6.10
2018,02,08,07,45,6.10
2018,02,08,07,46,6.00
2018,02,08,07,47,6.00
2018,02,08,07,48,6.00
2018,02,08,07,49,5.90
2018,02,08,07,50,5.90
2018,02,08,07,51,5.80
2018,02,08,07,52,5.80
2018,02,08,07,53,5.70
2018,02,08,07,54,5.70
2018,02,08,07,55,5.60
2018,02,08,07,56,5.60
2018,02,08,07,57,5.50
2018,02,08,07,58,5.50
2018,02,08,07,59,5.40
2018,02,08,08,00,5.40
2018,02,08,08,01,5.40
2018,02,08,08,02,5.30
2018,02,08,08,03,5.30
2018,02,08,08,04,5.30
2018,02,08,08,05,5.30
2018,02,08,08,06,5.30
2018,02,08,08,07,5.30
2018,02,08,08,08,5.40
2018,02,08,08,09,5.40
2018,02,08,08,10,5.50
2018,02,08,08,11,5.60
2018,02,08,08,12,5.60
2018,02,08,08,13,5.70
2018,02,08,08,14,5.80
2018,02,08,08,15,5.80
2018,02,08,08,16,5.80
2018,02,08,08,17,5.90
2018,02,08,08,18,5.90
2018,02,08,08,19,5.90
2018,02,08,08,20,6.00
2018,02,08,08,21,6.00
2018,02,08,08,22,6.10
2018,02,08,08,23,6.10
2018,02,08,08,24,6.10
2018,02,08,08,25,6.10
2018,02,08,08,26,6.10
2018,02,08,08,27,6.00
2018,02,08,08,28,6.00
2018,02,08,08,29,5.90
2018,02,08,08,30,5.90
2018,02,08,08,31,5.90
2018,02,08,08,32,5.90
2018,02,08,08,33,5.90
2018,02,08,08,34,5.90
2018,02,08,08,35,6.00
2018,02,08,08,36,6.00
2018,02,08,08,37,6.00
2018,02,08,08,38,6.00
2018,02,08,08,39,6.10
2018,02,08,08,40,6.10
2018,02,08,08,41,6.10
2018,02,08,08,42,6.10
2018,02,08,08,43,6.10
2018,02,08,08,44,6.20
2018,02,08,08,45,6.20
2018,02,08,08,46,6.20
2018,02,08,08,47,6.20
2018,02,08,08,48,6.20
2018,02,08,08,49,6.20
2018,02,08,08,50,6.20
2018,02,08,08,51,6.20
2018,02,08,08,52,6.10
2018,02,08,08,53,6.10
2018,02,08,08,54,6.10
2018,02,08,08,55,6.00
2018,02,08,08,56,6.00
2018,02,08,08,57,5.90
2018,02,08,08,58,5.90
2018,02,08,08,59,5.90
2018,02,08,09,00,5.90
2018,02,08,09,01,5.80
2018,02,08,09,02,5.80
2018,02,08,09,03,5.80
2018,02,08,09,04,5.90
2018,02,08,09,05,5.90
2018,02,08,09,06,5.90
2018,02,08,09,07,5.90
2018,02,08,09,08,5.90
2018,02,08,09,09,6.00
2018,02,08,09,10,6.00
2018,02,08,09,11,6.00
2018,02,08,09,12,6.00
2018,02,08,09,13,6.00
2018,02,08,09,14,6.00
2018,02,08,09,15,6.10
2018,02,08,09,16,6.10
2018,02,08,09,17,6.10
2018,02,08,09,18,6.20
2018,02,08,09,19,6.20
2018,02,08,09,20,6.20
2018,02,08,09,21,6.30
2018,02,08,09,22,6.30
2018,02,08,09,23,6.40
2018,02,08,09,24,6.40
2018,02,08,09,25,6.50
2018,02,08,09,26,6.50
2018,02,08,09,27,6.60
2018,02,08,09,28,6.60
2018,02,08,09,29,6.70
2018,02,08,09,30,6.70
2018,02,08,09,31,6.80
2018,02,08,09,32,6.80
2018,02,08,09,33,6.80
2018,02,08,09,34,6.80
2018,02,08,09,35,6.80
2018,02,08,09,36,6.80
2018,02,08,09,37,6.90
2018,02,08,09,38,6.90
2018,02,08,09,39,6.90
2018,02,08,09,40,7.00
2018,02,08,09,41,7.00
2018,02,08,09,42,7.10
2018,02,08,09,43,7.10
2018,02,08,09,44,7.10
2018,02,08,09,45,7.10
2018,02,08,09,46,7.20
2018,02,08,09,47,7.20
2018,02,08,09,48,7.20
2018,02,08,09,49,7.20
2018,02,08,09,50,7.20
2018,02,08,09,51,7.30
2018,02,08,09,52,7.30
2018,02,08,09,53,7.30
2018,02,08,09,54,7.30
2018,02,08,09,55,7.30
2018,02,08,09,56,7.30
2018,02,08,09,57,7.30
2018,02,08,09,58,7.30
2018,02,08,09,59,7.40
2018,02,08,10,00,7.40
2018,02,08,10,01,7.40
2018,02,08,10,02,7.40
2018,02,08,10,03,7.50
2018,02,08,10,04,7.50
2018,02,08,10,05,7.50
2018,02,08,10,06,7.50
2018,02,08,10,07,7.50
2018,02,08,10,08,7.60
2018,02,08,10,09,7.60
2018,02,08,10,10,7.60
2018,02,08,10,11,7.60
2018,02,08,10,12,7.70
2018,02,08,10,13,7.70
2018,02,08,10,14,7.70
2018,02,08,10,15,7.80
2018,02,08,10,16,7.80
2018,02,08,10,17,7.80
2018,02,08,10,18,7.90
2018,02,08,10,19,7.90
2018,02,08,10,20,7.90
2018,02,08,10,21,7.90
2018,02,08,10,22,8.00
2018,02,08,10,23,8.00
2018,02,08,10,24,8.00
2018,02,08,10,25,8.00
2018,02,08,10,26,8.00
2018,02,08,10,27,8.10
2018,02,08,10,28,8.10
2018,02,08,10,29,8.10
2018,02,08,10,30,8.10
2018,02,08,10,31,8.20
2018,02,08,10,32,8.20
2018,02,08,10,33,8.20
2018,02,08,10,34,8.20
2018,02,08,10,35,8.20
2018,02,08,10,36,8.30
2018,02,08,10,37,8.30
2018,02,08,10,38,8.30
2018,02,08,10,39,8.30
2018,02,08,10,40,8.30
2018,02,08,10,41,8.30
2018,02,08,10,42,8.40
2018,02,08,10,43,8.40
2018,02,08,10,44,8.50
2018,02,08,10,45,8.50
2018,02,08,10,46,8.50
2018,02,08,10,47,8.50
2018,02,08,10,48,8.60
2018,02,08,10,49,8.60
2018,02,08,10,50,8.70
2018,02,08,10,51,8.70
2018,02,08,10,52,8.70
2018,02,08,10,53,8.70
2018,02,08,10,54,8.70
2018,02,08,10,55,8.70
2018,02,08,10,56,8.70
2018,02,08,10,57,8.70
2018,02,08,10,58,8.70
2018,02,08,10,59,8.80
2018,02,08,11,00,8.80
2018,02,08,11,01,8.90
2018,02,08,11,02,8.90
2018,02,08,11,03,8.90
2018,02,08,11,04,8.90
2018,02,08,11,05,8.90
2018,02,08,11,06,8.90
2018,02,08,11,07,9.00
2018,02,08,11,08,9.00
2018,02,08,11,09,8.90
2018,02,08,11,10,8.90
2018,02,08,11,11,9.00
2018,02,08,11,12,9.00
2018,02,08,11,13,9.00
2018,02,08,11,14,9.10
2018,02,08,11,15,9.10
2018,02,08,11,16,9.10
2018,02,08,11,17,9.10
2018,02,08,11,18,9.20
2018,02,08,11,19,9.20
2018,02,08,11,20,9.20
2018,02,08,11,21,9.20
2018,02,08,11,22,9.30
2018,02,08,11,23,9.30
2018,02,08,11,24,9.30
2018,02,08,11,25,9.40
2018,02,08,11,26,9.40
2018,02,08,11,27,9.40
2018,02,08,11,28,9.50
2018,02,08,11,29,9.50
2018,02,08,11,30,9.50
2018,02,08,11,31,9.60
2018,02,08,11,32,9.60
2018,02,08,11,33,9.60
2018,02,08,11,34,9.60
2018,02,08,11,35,9.60
2018,02,08,11,36,9.60
2018,02,08,11,37,9.60
2018,02,08,11,38,9.60
2018,02,08,11,39,9.60
2018,02,08,11,40,9.60
2018,02,08,11,41,9.60
2018,02,08,11,42,9.60
2018,02,08,11,43,9.70
2018,02,08,11,44,9.70
2018,02,08,11,45,9.70
2018,02,08,11,46,9.80
2018,02,08,11,47,9.70
2018,02,08,11,48,9.70
2018,02,08,11,49,9.70
2018,02,08,11,50,9.70
2018,02,08,11,51,9.70
2018,02,08,11,52,9.70
2018,02,08,11,53,9.70
2018,02,08,11,54,9.70
2018,02,08,11,55,9.70
2018,02,08,11,56,9.70
2018,02,08,11,57,9.70
2018,02,08,11,58,9.70
2018,02,08,11,59,9.70
2018,02,08,12,00,9.80
2018,02,08,12,01,9.80
2018,02,08,12,02,9.80
2018,02,08,12,03,9.90
2018,02,08,12,04,9.90
2018,02,08,12,05,9.90
2018,02,08,12,06,10.00
2018,02,08,12,07,10.00
2018,02,08,12,08,9.90
2018,02,08,12,09,9.90
2018,02,08,12,10,9.90
2018,02,08,12,11,10.00
2018,02,08,12,12,10.00
2018,02,08,12,13,10.00
2018,02,08,12,14,10.00
2018,02,08,12,15,10.10
2018,02,08,12,16,10.10
2018,02,08,12,17,10.10
2018,02,08,12,18,10.10
2018,02,08,12,19,10.20
2018,02,08,12,20,10.20
2018,02,08,12,21,10.20
2018,02,08,12,22,10.20
2018,02,08,12,23,10.20
2018,02,08,12,24,10.20
2018,02,08,12,25,10.20
2018,02,08,12,26,10.20
2018,02,08,12,27,10.20
2018,02,08,12,28,10.30
2018,02,08,12,29,10.30
2018,02,08,12,30,10.30
2018,02,08,12,31,10.40
2018,02,08,12,32,10.40
2018,02,08,12,33,10.40
2018,02,08,12,34,10.40
2018,02,08,12,35,10.30
2018,02,08,12,36,10.30
2018,02,08,12,37,10.30
2018,02,08,12,38,10.30
2018,02,08,12,39,10.30
2018,02,08,12,40,10.40
2018,02,08,12,41,10.40
2018,02,08,12,42,10.40
2018,02,08,12,43,10.40
2018,02,08,12,44,10.40
2018,02,08,12,45,10.40
2018,02,08,12,46,10.50
2018,02,08,12,47,10.50
2018,02,08,12,48,10.50
2018,02,08,12,49,10.50
2018,02,08,12,50,10.50
2018,02,08,12,51,10.50
2018,02,08,12,52,10.50
2018,02,08,12,53,10.50
2018,02,08,12,54,10.50
2018,02,08,12,55,10.50
2018,02,08,12,56,10.60
2018,02,08,12,57,10.60
2018,02,08,12,58,10.60
2018,02,08,12,59,10.60
2018,02,08,13,00,10.60
2018,02,08,13,01,10.60
2018,02,08,13,02,10.60
2018,02,08,13,03,10.60
2018,02,08,13,04,10.60
2018,02,08,13,05,10.60
2018,02,08,13,06,10.60
2018,02,08,13,07,10.60
2018,02,08,13,08,10.60
2018,02,08,13,09,10.60
2018,02,08,13,10,10.60
2018,02,08,13,11,10.60
2018,02,08,13,12,10.60
2018,02,08,13,13,10.60
2018,02,08,13,14,10.60
2018,02,08,13,15,10.60
2018,02,08,13,16,10.60
2018,02,08,13,17,10.60
2018,02,08,13,18,10.70
2018,02,08,13,19,10.70
2018,02,08,13,20,10.70
2018,02,08,13,21,10.70
2018,02,08,13,22,10.70
2018,02,08,13,23,10.70
2018,02,08,13,24,10.70
2018,02,08,13,25,10.80
2018,02,08,13,26,10.80
2018,02,08,13,27,10.80
2018,02,08,13,28,10.80
2018,02,08,13,29,10.80
2018,02,08,13,30,10.80
2018,02,08,13,31,10.80
2018,02,08,13,32,10.80
2018,02,08,13,33,10.80
2018,02,08,13,34,10.80
2018,02,08,13,35,10.70
2018,02,08,13,36,10.70
2018,02,08,13,37,10.80
2018,02,08,13,38,10.80
2018,02,08,13,39,10.80
2018,02,08,13,40,10.80
2018,02,08,13,41,10.80
2018,02,08,13,42,10.80
2018,02,08,13,43,10.80
2018,02,08,13,44,10.80
2018,02,08,13,45,10.80
2018,02,08,13,46,10.70
2018,02,08,13,47,10.70
2018,02,08,13,48,10.70
2018,02,08,13,49,10.70
2018,02,08,13,50,10.70
2018,02,08,13,51,10.70
2018,02,08,13,52,10.70
2018,02,08,13,53,10.70
2018,02,08,13,54,10.70
2018,02,08,13,55,10.70
2018,02,08,13,56,10.70
2018,02,08,13,57,10.80
2018,02,08,13,58,10.80
2018,02,08,13,59,10.80
2018,02,08,14,00,10.80
2018,02,08,14,01,10.80
2018,02,08,14,02,10.80
2018,02,08,14,03,10.80
2018,02,08,14,04,10.80
2018,02,08,14,05,10.80
2018,02,08,14,06,10.80
2018,02,08,14,07,10.80
2018,02,08,14,08,10.80
2018,02,08,14,09,10.80
2018,02,08,14,10,10.70
2018,02,08,14,11,10.60
2018,02,08,14,12,10.50
2018,02,08,14,13,10.40
2018,02,08,14,14,10.40
2018,02,08,14,15,10.30
2018,02,08,14,16,10.20
2018,02,08,14,17,10.20
2018,02,08,14,18,10.10
2018,02,08,14,19,10.10
2018,02,08,14,20,10.10
2018,02,08,14,21,10.00
2018,02,08,14,22,10.00
2018,02,08,14,23,9.90
2018,02,08,14,24,9.90
2018,02,08,14,25,9.90
2018,02,08,14,26,9.90
2018,02,08,14,27,10.00
2018,02,08,14,28,10.00
2018,02,08,14,29,10.00
2018,02,08,14,30,10.00
2018,02,08,14,31,10.00
2018,02,08,14,32,10.00
2018,02,08,14,33,10.00
2018,02,08,14,34,9.90
2018,02,08,14,35,9.90
2018,02,08,14,36,9.80
2018,02,08,14,37,9.80
2018,02,08,14,38,9.80
2018,02,08,14,39,9.80
2018,02,08,14,40,9.80
2018,02,08,14,41,9.70
2018,02,08,14,42,9.70
2018,02,08,14,43,9.60
2018,02,08,14,44,9.60
2018,02,08,14,45,9.50
2018,02,08,14,46,9.50
2018,02,08,14,47,9.50
2018,02,08,14,48,9.40
2018,02,08,14,49,9.40
2018,02,08,14,50,9.40
2018,02,08,14,51,9.40
2018,02,08,14,52,9.40
2018,02,08,14,53,9.50
2018,02,08,14,54,9.50
2018,02,08,14,55,9.50
2018,02,08,14,56,9.50
2018,02,08,14,57,9.60
2018,02,08,14,58,9.60
2018,02,08,14,59,9.60
2018,02,08,15,00,9.60
2018,02,08,15,01,9.60
2018,02,08,15,02,9.60
2018,02,08,15,03,9.60
2018,02,08,15,04,9.60
2018,02,08,15,05,9.60
2018,02,08,15,06,9.60
2018,02,08,15,07,9.60
2018,02,08,15,08,9.60
2018,02,08,15,09,9.60
2018,02,08,15,10,9.50
2018,02,08,15,11,9.50
2018,02,08,15,12,9.40
2018,02,08,15,13,9.40
2018,02,08,15,14,9.40
2018,02,08,15,15,9.40
2018,02,08,15,16,9.40
2018,02,08,15,17,9.40
2018,02,08,15,18,9.40
2018,02,08,15,19,9.40
2018,02,08,15,20,9.40
2018,02,08,15,21,9.40
2018,02,08,15,22,9.40
2018,02,08,15,23,9.40
2018,02,08,15,24,9.40
2018,02,08,15,25,9.40
2018,02,08,15,26,9.40
2018,02,08,15,27,9.40
2018,02,08,15,28,9.40
2018,02,08,15,29,9.40
2018,02,08,15,30,9.40
2018,02,08,15,31,9.40
2018,02,08,15,32,9.40
2018,02,08,15,33,9.40
2018,02,08,15,34,9.50
2018,02,08,15,35,9.40
2018,02,08,15,36,9.40
2018,02,08,15,37,9.40
2018,02,08,15,38,9.50
2018,02,08,15,39,9.50
2018,02,08,15,40,9.50
2018,02,08,15,41,9.50
2018,02,08,15,42,9.50
2018,02,08,15,43,9.50
2018,02,08,15,44,9.50
2018,02,08,15,45,9.50
2018,02,08,15,46,9.60
2018,02,08,15,47,9.60
2018,02,08,15,48,9.60
2018,02,08,15,49,9.60
2018,02,08,15,50,9.60
2018,02,08,15,51,9.60
2018,02,08,15,52,9.60
2018,02,08,15,53,9.60
2018,02,08,15,54,9.60
2018,02,08,15,55,9.60
2018,02,08,15,56,9.60
2018,02,08,15,57,9.60
2018,02,08,15,58,9.60
2018,02,08,15,59,9.60
2018,02,08,16,00,9.60
2018,02,08,16,01,9.60
2018,02,08,16,02,9.60
2018,02,08,16,03,9.60
2018,02,08,16,04,9.60
2018,02,08,16,05,9.60
2018,02,08,16,06,9.50
2018,02,08,16,07,9.50
2018,02,08,16,08,9.50
2018,02,08,16,09,9.50
2018,02,08,16,10,9.50
2018,02,08,16,11,9.50
2018,02,08,16,12,9.50
2018,02,08,16,13,9.40
2018,02,08,16,14,9.40
2018,02,08,16,15,9.40
2018,02,08,16,16,9.40
2018,02,08,16,17,9.40
2018,02,08,16,18,9.40
2018,02,08,16,19,9.30
2018,02,08,16,20,9.30
2018,02,08,16,21,9.30
2018,02,08,16,22,9.30
2018,02,08,16,23,9.30
2018,02,08,16,24,9.30
2018,02,08,16,25,9.30
2018,02,08,16,26,9.30
2018,02,08,16,27,9.30
2018,02,08,16,28,9.30
2018,02,08,16,29,9.30
2018,02,08,16,30,9.30
2018,02,08,16,31,9.30
2018,02,08,16,32,9.20
2018,02,08,16,33,9.20
2018,02,08,16,34,9.20
2018,02,08,16,35,9.20
2018,02,08,16,36,9.20
2018,02,08,16,37,9.20
2018,02,08,16,38,9.20
2018,02,08,16,39,9.10
2018,02,08,16,40,9.10
2018,02,08,16,41,9.10
2018,02,08,16,42,9.10
2018,02,08,16,43,9.10
2018,02,08,16,44,9.10
2018,02,08,16,45,9.10
2018,02,08,16,46,9.10
2018,02,08,16,47,9.10
2018,02,08,16,48,9.00
2018,02,08,16,49,9.00
2018,02,08,16,50,9.00
2018,02,08,16,51,8.90
2018,02,08,16,52,8.90
2018,02,08,16,53,8.90
2018,02,08,16,54,8.90
2018,02,08,16,55,8.80
2018,02,08,16,56,8.80
2018,02,08,16,57,8.80
2018,02,08,16,58,8.80
2018,02,08,16,59,8.70
2018,02,08,17,00,8.70
2018,02,08,17,01,8.60
2018,02,08,17,02,8.60
2018,02,08,17,03,8.60
2018,02,08,17,04,8.50
2018,02,08,17,05,8.40
2018,02,08,17,06,8.40
2018,02,08,17,07,8.30
2018,02,08,17,08,8.30
2018,02,08,17,09,8.20
2018,02,08,17,10,8.10
2018,02,08,17,11,8.10
2018,02,08,17,12,8.10
2018,02,08,17,13,8.00
2018,02,08,17,14,8.00
2018,02,08,17,15,7.90
2018,02,08,17,16,7.90
2018,02,08,17,17,7.90
2018,02,08,17,18,7.90
2018,02,08,17,19,7.80
2018,02,08,17,20,7.80
2018,02,08,17,21,7.80
2018,02,08,17,22,7.80
2018,02,08,17,23,7.80
2018,02,08,17,24,7.80
2018,02,08,17,25,7.70
2018,02,08,17,26,7.70
2018,02,08,17,27,7.70
2018,02,08,17,28,7.70
2018,02,08,17,29,7.60
2018,02,08,17,30,7.60
2018,02,08,17,31,7.60
2018,02,08,17,32,7.60
2018,02,08,17,33,7.60
2018,02,08,17,34,7.60
2018,02,08,17,35,7.60
2018,02,08,17,36,7.50
2018,02,08,17,37,7.50
2018,02,08,17,38,7.50
2018,02,08,17,39,7.40
2018,02,08,17,40,7.40
2018,02,08,17,41,7.40
2018,02,08,17,42,7.30
2018,02,08,17,43,7.30
2018,02,08,17,44,7.30
2018,02,08,17,45,7.20
2018,02,08,17,46,7.20
2018,02,08,17,47,7.20
2018,02,08,17,48,7.20
2018,02,08,17,49,7.10
2018,02,08,17,50,7.10
2018,02,08,17,51,7.10
2018,02,08,17,52,7.10
2018,02,08,17,53,7.10
2018,02,08,17,54,7.10
2018,02,08,17,55,7.00
2018,02,08,17,56,7.00
2018,02,08,17,57,7.00
2018,02,08,17,58,6.90
2018,02,08,17,59,7.00
2018,02,08,18,00,6.90